Regional Weather Roundup
Issued by NWS

Home | Current Version | Previous Version | Graphics & Text | Print | Product List | Glossary On
Versions: 1 2 3 4 5 6 7 8 9 10 11 12 13 14 15 16 17 18 19 20 21 22 23 24 25 26 27 28 29 30 31 32 33 34 35 36 37 38 39 40 41 42 43 44 45 46 47 48 49 50
977
ASUS43 KMKX 141859
RWRWI

WISCONSIN REGIONAL WEATHER ROUNDUP
NATIONAL WEATHER SERVICE MILWAUKEE/SULLIVAN WI
100 PM CST SUN FEB 14 2016

NOTE: "FAIR" INDICATES FEW OR NO CLOUDS BELOW 12,000 FEET WITH NO
SIGNIFICANT WEATHER AND/OR OBSTRUCTIONS TO VISIBILITY.

WIZ001-002-006>008-014>016-023>028-142000-
NORTHWEST WISCONSIN

CITY           SKY/WX    TMP DP  RH WIND       PRES   REMARKS
SUPERIOR ARPT  LGT SNOW  15   8  72 S9        30.03F WCI   3
ASHLAND        CLOUDY    19   2  47 S9G23     30.03F WCI   8
HAYWARD        LGT SNOW  13   3  64 S15G21    30.00F WCI  -3
SIREN          CLOUDY    16   5  62 SE8G16    30.01F WCI   5
CUMBERLAND     CLOUDY    14   5  67 SE15      30.00F WCI  -1
RICE LAKE      CLOUDY    15   7  68 SE13      30.04F WCI   2
CHETEK         CLOUDY    15   6  67 S13G21    30.04F WCI   1
LADYSMITH      LGT SNOW  16   4  61 SE12G25   30.05F WCI   3
EAU CLAIRE     LGT SNOW  14   6  70 SE14      30.05F WCI  -1
MENOMONIE      LGT SNOW  20   8  60 SE10      30.05F WCI   9
NEW RICHMOND   LGT SNOW  18   9  68 S12       30.00F WCI   5
OSCEOLA        LGT SNOW  19  11  70 S16       30.02F WCI   4
$$

WIZ003>005-009-010-017-018-142000-
NORTH CENTRAL WISCONSIN

CITY           SKY/WX    TMP DP  RH WIND       PRES   REMARKS
MANITOWISH WTR CLOUDY    15 -11  31 S15G23    30.02F WCI  -1
ARBOR VITAE    CLOUDY    17 -11  28 S13G20    30.03F WCI   3
WOODRUFF       CLOUDY    17 -11  28 S13G20    30.03F WCI   3
RHINELANDER    CLOUDY    17  -1  45 S14G22    30.05F WCI   3
EAGLE RIVER    CLOUDY    17  -8  32 S13G24    30.06F WCI   3
LAND O LAKES   CLOUDY    18 -11  26 S9        30.05F WCI   7
PHILLIPS       CLOUDY    15  -4  42 S14       30.03F WCI   0
TOMAHAWK       CLOUDY    16  -3  43 SE5       30.06F WCI   8
MEDFORD        CLOUDY    14  -3  46 SE12G20   30.04F WCI   0
MERRILL        CLOUDY    19  -2  39 S13G18    30.09F WCI   7
$$

WIZ029-030-035-036-043>047-142000-
CENTRAL WISCONSIN

CITY           SKY/WX    TMP DP  RH WIND       PRES   REMARKS
WAUSAU         CLOUDY    18  -4  37 S17       30.06F WCI   3
MOSINEE        CLOUDY    18  -8  32 SE17      30.09F WCI   2
MARSHFIELD     LGT SNOW  16   4  59 SE17      30.04F WCI   0
STEVENS POINT  CLOUDY    16  -5  40 S10       30.12F WCI   3
WAUPACA        CLOUDY    22   3  44 SE14      30.16F WCI   9
WAUTOMA        NOT AVBL
WISC RAPIDS    LGT SNOW  15   3  59 SE13      30.11F WCI   1
CAMP DOUGLAS   NOT AVBL
$$

WIZ011>013-019>022-031-037>040-048>050-142000-
NORTHEAST WISCONSIN

CITY           SKY/WX    TMP DP  RH WIND       PRES   REMARKS
ANTIGO         SUNNY     16   6  65 S18G25    30.09F WCI   0
SHAWANO        CLOUDY    23   9  55 S9G16     30.17F WCI  13
OCONTO         CLOUDY    17   9  71 E3        30.22F
STURGEON BAY   CLOUDY    19  16  86 S15G24    30.22F WCI   5
GREEN BAY      PTSUNNY   18  11  74 S8        30.19F WCI   8
MANITOWOC      NOT AVBL
APPLETON       PTSUNNY   21  10  63 SE16      30.14F WCI   7
CLINTONVILLE   SUNNY     23   9  54 S15       30.16F WCI  10
OSHKOSH        CLOUDY    20  10  65 S20       30.15F WCI   4
$$

WIZ032>034-041-042-053>061-142000-
SOUTHWEST WISCONSIN

CITY           SKY/WX    TMP DP  RH WIND       PRES   REMARKS
LA CROSSE      CLOUDY    19  11  70 SE16      30.05F WCI   4
SPARTA         LGT SNOW  16  10  77 SE10      30.08F WCI   3
VIROQUA        CLOUDY    17  10  76 SE17      30.02F WCI   1
BOSCOBEL       LGT SNOW  18  11  74 SE9       30.08F WCI   7
PRAIRIE DU CHI MIX PCPN  17  11  75 SE15G21   30.06F WCI   3
PLATTEVILLE    CLOUDY    16  12  86 SE17      30.06F WCI   0
$$

WIZ056-057-062-063-064-067-068-142000-
SOUTH CENTRAL WISCONSIN

CITY           SKY/WX    TMP DP  RH WIND       PRES   REMARKS
REEDSBURG      LGT SNOW  15  10  78 SE5G16    30.10F WCI   8
BARABOO/DELLS  LGT SNOW  15   9  76 SE10G20   30.10F WCI   2
LONE ROCK      NOT AVBL
MINERAL POINT  LGT SNOW  18  12  79 SE21      30.05F WCI   1
MADISON        SNOW      14   9  80 SE15      30.13F VSB 1/2 WCI  -1
MIDDLETON      CLOUDY    16  11  80 SE13      30.13F VSB 1   WCI   3
WATERTOWN      LGT SNOW  17  10  73 SE12      30.16F WCI   4
MONROE         LGT SNOW  16  12  86 SE12G17   30.10F VSB 1   WCI   3
JANESVILLE     SNOW      16  12  86 SE15      30.15F VSB 1/2 WCI   1
$$

WIZ051-052-058>065-066-070>072-142000-
SOUTHEAST WISCONSIN

CITY           SKY/WX    TMP DP  RH WIND       PRES   REMARKS
MILWAUKEE      LGT SNOW  19  10  68 S14       30.20F WCI   6
WAUKESHA       LGT SNOW  16   9  73 SE15      30.18F FOG     WCI   1
MILWAUKEE/TIMM CLOUDY    19   9  63 S10G20    30.21F WCI   8
RACINE         FLURRIES  20  10  65 S16G26    30.22F WCI   6
BURLINGTON     LGT SNOW  15   8  73 SE13      30.19F WCI   1
KENOSHA        LGT SNOW  17   9  70 S15       30.20F VSB 1   WCI   2
FOND DU LAC    CLOUDY    20  11  68 S16       30.16F WCI   6
SHEBOYGAN      CLOUDY    20  12  71 SE10      30.20F WCI   9
WEST BEND      CLOUDY    19  10  68 SE13G21   30.18F WCI   7
JUNEAU         FLURRIES  18   8  66 SE17      30.17F WCI   2
$$

LSZ147-162-142000-
LAKE SUPERIOR

STATION/POSITION TIME  TEMP    WIND        PRES    WAVE
                       AIR SEA DIR/SP/G            HT/PER
                 (UTC) (F)     (DEG/KT/KT) (MB)    (FT/S)
DEVILS ISLAND    1800   13     160/  5/  8 1020.3F
SAXON HARBOR     1820                      1017.6F
$$

LMZ867-665-643>646-142000-
LAKE MICHIGAN

STATION/POSITION TIME  TEMP    WIND        PRES    WAVE
                       AIR SEA DIR/SP/G            HT/PER
                 (UTC) (F)     (DEG/KT/KT) (MB)    (FT/S)
CHAMBERS ISLAND  1800   17     330/  3/  3 1024.4F
SISTER BAY       1819   16     350/  7/  7   N/A
ALGOMA LAKESHORE 1811          200/ 27/ 34   N/A
KEWAUNEE LAKESHO 1800   23     160/ 24/ 29 1022.9F
SHEBOYGAN LAKESH 1800   20     140/ 24/ 27 1025.0F
PORT WASHINGTON  1800   22     160/ 20     1024.4F
MILWAUKEE LAKESH 1810   20     150/ 21/ 23   N/A
KENOSHA   LAKESH 1800   19     160/ 22/ 25 1023.4F
$$

TC  - TEMPERATURE IN CELSIUS
VSB - VISIBILITY IN STATUTE MILES
WCI - WIND CHILL INDEX
HX  - HEAT INDEX





USA.gov is the U.S. government's official web portal to all federal, state and local government web resources and services.